FW4820 Weather Reports


time (UTC)temp
C
wind
direction
speed
KPH
gust
KPH
rain 1hr
cm
rain 24hr
cm
rain mn
cm
humidity
%
barometer
mb
20260507144016 14 225 8.0 17.7 0.00 0.00 0.00 67 1017.5
20260507143017 14 248 8.0 12.9 0.00 0.00 0.00 70 1017.5
20260507142016 13 248 6.4 14.5 0.00 0.00 0.00 73 1017.5
20260507141016 13 248 9.7 19.3 0.00 0.00 0.00 71 1017.5
20260507140017 13 248 6.4 14.5 0.00 0.03 0.00 73 1017.7
20260507135016 12 225 6.4 14.5 0.00 0.03 0.00 73 1017.6
20260507134016 12 248 6.4 12.9 0.00 0.03 0.00 76 1017.9
20260507133016 12 225 3.2 9.7 0.00 0.03 0.00 75 1017.8
20260507132016 11 225 3.2 9.7 0.00 0.03 0.00 78 1017.9
20260507131016 11 225 3.2 9.7 0.00 0.03 0.00 77 1017.9
20260507130017 10 248 3.2 9.7 0.00 0.03 0.00 81 1018.0
20260507125036 10 0.0 4.8 0.00 0.03 0.00 81 1018.0
20260507124016 10 0.0 4.8 0.00 0.03 0.00 82 1018.1
20260507123016 9 0.0 1.6 0.00 0.03 0.00 83 1018.1
20260507122016 8 0.0 1.6 0.00 0.03 0.00 86 1018.3
20260507121016 7 0.0 3.2 0.00 0.03 0.00 87 1018.0
20260507120036 6 0.0 1.6 0.00 0.03 0.00 89 1018.0
20260507115016 5 0.0 1.6 0.00 0.03 0.00 91 1018.1
20260507114016 5 0.0 1.6 0.00 0.03 0.00 91 1018.0
20260507113016 5 0.0 1.6 0.00 0.03 0.00 90 1018.0
20260507112036 5 0.0 1.6 0.00 0.03 0.00 90 1018.0
20260507111016 5 0.0 0.0 0.00 0.03 0.00 90 1018.0
20260507110016 5 0.0 0.0 0.00 0.03 0.00 90 1017.9
20260507105016 5 0.0 0.0 0.00 0.03 0.00 90 1017.8
20260507104016 5 0.0 0.0 0.00 0.03 0.00 90 1017.8
20260507103016 5 0.0 0.0 0.00 0.03 0.00 89 1017.8
20260507102016 5 0.0 0.0 0.00 0.03 0.00 88 1017.9
20260507101016 5 0.0 0.0 0.00 0.03 0.00 89 1018.0
20260507100016 5 0.0 0.0 0.00 0.03 0.00 88 1017.9
20260507095016 5 0.0 0.0 0.00 0.03 0.00 88 1017.9
20260507094016 5 0.0 4.8 0.00 0.03 0.00 88 1018.0
20260507093016 5 0.0 0.0 0.00 0.03 0.00 88 1018.0
20260507092016 5 0.0 0.0 0.00 0.03 0.00 88 1018.0
20260507091018 5 0.0 0.0 0.00 0.03 0.00 89 1018.0
20260507090016 5 0.0 0.0 0.00 0.03 0.00 89 1018.0
20260507085016 5 0.0 0.0 0.00 0.03 0.00 89 1018.2
20260507084016 5 0.0 0.0 0.00 0.03 0.00 88 1018.2
20260507083016 5 0.0 0.0 0.00 0.03 0.00 88 1018.4
20260507082016 5 0.0 0.0 0.00 0.03 0.00 88 1018.4
20260507081016 5 0.0 0.0 0.00 0.03 0.00 88 1018.3
20260507080016 5 0.0 0.0 0.00 0.03 0.00 87 1018.4
20260507075016 5 0.0 0.0 0.00 0.03 0.00 87 1018.3
20260507074036 5 0.0 0.0 0.00 0.03 0.00 87 1018.2
20260507073016 6 0.0 0.0 0.00 0.03 0.00 86 1018.3
20260507072016 6 0.0 0.0 0.00 0.03 0.00 85 1018.3
20260507071016 6 0.0 0.0 0.00 0.03 0.00 85 1018.6
20260507070016 6 0.0 0.0 0.00 0.03 0.00 84 1018.6
20260507065056 6 0.0 0.0 0.00 0.03 0.00 84 1018.9
20260507064016 6 0.0 0.0 0.00 0.03 0.00 83 1018.8
20260507063016 7 0.0 0.0 0.00 0.03 0.00 83 1019.0
20260507062016 7 0.0 0.0 0.00 0.03 0.00 82 1019.0
20260507061016 7 0.0 0.0 0.00 0.03 0.00 81 1019.2
20260507060036 7 0.0 0.0 0.00 0.03 0.00 81 1019.2
20260507055016 7 0.0 0.0 0.00 0.03 0.00 80 1019.2
20260507054016 8 0.0 0.0 0.00 0.03 0.00 79 1019.2
20260507053016 8 0.0 0.0 0.00 0.03 0.00 79 1019.3
20260507052016 8 0.0 0.0 0.00 0.03 0.00 80 1019.1
20260507051016 8 0.0 0.0 0.00 0.03 0.00 80 1019.1
20260507050016 8 0.0 0.0 0.00 0.03 0.03 79 1019.3
20260507045057 8 0.0 0.0 0.00 0.03 0.03 78 1019.2
20260507044017 8 0.0 0.0 0.00 0.03 0.03 77 1019.1
20260507043017 8 0.0 0.0 0.00 0.03 0.03 76 1019.2
20260507042017 7 0.0 0.0 0.00 0.05 0.03 76 1019.3
20260507041037 7 0.0 0.0 0.00 0.05 0.03 76 1019.3
20260507040018 7 0.0 0.0 0.00 0.05 0.03 77 1019.0
20260507035017 7 0.0 0.0 0.00 0.05 0.03 78 1019.1
20260507034017 7 0.0 0.0 0.00 0.08 0.03 78 1019.1
20260507033017 7 0.0 0.0 0.00 0.08 0.03 77 1019.1
20260507032057 6 0.0 0.0 0.00 0.08 0.03 78 1019.1
20260507031017 6 0.0 0.0 0.00 0.08 0.03 77 1019.2
20260507030017 6 0.0 0.0 0.00 0.08 0.03 78 1019.0
20260507025017 6 0.0 0.0 0.00 0.08 0.03 77 1018.9
20260507024017 6 0.0 0.0 0.00 0.08 0.03 74 1018.6
20260507023037 6 0.0 0.0 0.00 0.08 0.03 72 1018.6
20260507022017 7 0.0 0.0 0.00 0.08 0.03 72 1018.7
20260507021017 7 0.0 0.0 0.00 0.08 0.03 72 1018.5
20260507020017 8 0.0 0.0 0.00 0.08 0.03 70 1018.5
20260507015037 8 0.0 0.0 0.00 0.08 0.03 68 1018.3
20260507014017 9 0.0 0.0 0.00 0.08 0.03 66 1018.2
20260507013017 10 0.0 0.0 0.00 0.08 0.03 64 1018.1
20260507012017 11 0.0 0.0 0.00 0.08 0.03 58 1018.2
20260507011017 11 0.0 0.0 0.00 0.08 0.03 58 1018.2
20260507010017 12 0.0 0.0 0.00 0.08 0.03 52 1018.3
20260507005057 13 0.0 0.0 0.00 0.08 0.03 49 1018.2
20260507004017 14 0.0 0.0 0.00 0.08 0.03 45 1018.2
20260507003017 15 0.0 0.0 0.00 0.08 0.03 42 1018.2
20260507002017 17 0.0 0.0 0.00 0.08 0.03 41 1018.5
20260507001016 15 0.0 0.0 0.00 0.08 0.03 45 1018.2
20260507000017 15 0.0 0.0 0.00 0.08 0.03 42 1018.2
20260506235017 15 45 1.6 4.8 0.00 0.08 0.03 39 1018.3
20260506234016 15 23 3.2 9.7 0.00 0.08 0.03 39 1018.3
20260506233017 16 225 3.2 11.3 0.00 0.08 0.03 38 1018.5
20260506232017 16 315 1.6 9.7 0.00 0.08 0.03 40 1018.6
20260506231017 16 0 1.6 6.4 0.00 0.08 0.03 42 1018.6
20260506230017 15 338 1.6 8.0 0.00 0.08 0.03 42 1018.6
20260506225037 15 45 4.8 12.9 0.00 0.08 0.03 39 1018.5
20260506224016 16 315 3.2 11.3 0.00 0.08 0.03 41 1018.6
20260506223017 16 248 3.2 9.7 0.00 0.08 0.03 41 1018.5
20260506222016 16 338 3.2 9.7 0.00 0.08 0.03 44 1018.4
20260506221016 15 315 4.8 14.5 0.00 0.08 0.03 41 1018.4
20260506220016 15 315 4.8 12.9 0.00 0.08 0.03 41 1018.7
20260506215016 16 0 6.4 19.3 0.00 0.08 0.03 39 1018.6
20260506214037 16 248 4.8 11.3 0.00 0.08 0.03 42 1018.9
20260506213016 15 315 6.4 11.3 0.00 0.08 0.03 44 1019.1
20260506212016 16 315 3.2 9.7 0.00 0.08 0.03 45 1019.1
20260506211017 15 23 6.4 12.9 0.00 0.08 0.03 40 1019.4
20260506210016 15 248 4.8 14.5 0.00 0.08 0.03 42 1019.3
20260506205016 15 315 4.8 11.3 0.00 0.08 0.03 41 1019.7
20260506204016 15 338 4.8 12.9 0.00 0.08 0.03 42 1019.7
20260506203017 15 315 9.7 22.5 0.00 0.08 0.03 41 1019.8
20260506202036 15 23 3.2 9.7 0.00 0.08 0.03 41 1019.9
20260506201016 15 23 3.2 11.3 0.00 0.08 0.03 40 1019.9
20260506200016 15 23 8.0 17.7 0.00 0.08 0.03 45 1020.1
20260506195016 15 315 4.8 16.1 0.00 0.08 0.03 44 1020.0
20260506194016 14 315 6.4 17.7 0.00 0.08 0.03 47 1020.1
20260506193016 14 68 8.0 16.1 0.00 0.08 0.03 43 1020.1
20260506192016 14 45 8.0 19.3 0.00 0.08 0.03 42 1019.9
20260506191036 14 23 8.0 16.1 0.00 0.08 0.03 42 1020.1
20260506190017 14 23 6.4 22.5 0.00 0.08 0.03 46 1020.1
20260506185016 14 23 8.0 17.7 0.00 0.08 0.03 42 1020.1
20260506184016 14 315 6.4 14.5 0.00 0.08 0.03 39 1020.3
20260506183016 13 23 8.0 16.1 0.00 0.08 0.03 44 1020.2
20260506182017 13 315 6.4 17.7 0.00 0.08 0.03 41 1020.3
20260506181016 14 23 8.0 19.3 0.00 0.08 0.03 40 1020.3
20260506180016 14 315 4.8 12.9 0.00 0.08 0.03 45 1020.5
20260506175016 14 315 4.8 8.0 0.00 0.08 0.03 48 1020.6
20260506174016 13 338 6.4 14.5 0.00 0.10 0.03 42 1020.5
20260506173016 13 23 8.0 16.1 0.00 0.13 0.03 43 1020.6
20260506172016 13 23 4.8 14.5 0.00 0.15 0.03 44 1020.6
20260506171017 12 45 6.4 14.5 0.00 0.15 0.03 48 1020.7
20260506170016 12 315 4.8 12.9 0.00 0.15 0.03 49 1020.8
20260506165016 12 23 4.8 11.3 0.00 0.18 0.03 44 1020.8
20260506164036 12 315 6.4 11.3 0.00 0.23 0.03 45 1020.9
20260506163036 12 338 4.8 16.1 0.00 0.23 0.03 48 1020.8
20260506162038 12 45 6.4 12.9 0.00 0.23 0.03 52 1020.8
20260506161016 12 315 4.8 11.3 0.00 0.23 0.03 50 1020.8
20260506160016 12 315 6.4 14.5 0.00 0.23 0.03 50 1020.6
20260506155016 12 23 6.4 11.3 0.00 0.23 0.03 51 1020.7
20260506154016 12 315 3.2 9.7 0.00 0.25 0.03 55 1020.6
20260506153016 12 315 3.2 6.4 0.00 0.28 0.03 56 1020.8
20260506152016 12 315 3.2 9.7 0.00 0.28 0.03 57 1020.6
20260506151016 12 315 6.4 17.7 0.00 0.28 0.03 56 1020.6
20260506150016 12 315 6.4 12.9 0.03 0.28 0.03 57 1020.5
20260506145016 11 293 3.2 8.0 0.03 0.28 0.03 63 1020.4